Home > Weather > Taiyuan > Past weeks

Flag for China Weather for the Past 2 Weeks in Taiyuan, Shanxi, China

Now
55 °F

Sunny.


Feels Like: 53 °F
Forecast: 42 / 68 °F
Wind: 10 mph from North

Location: Taiyuan Airport

Current Time: May 6, 2016 at 9:50:48 AM

Latest Report: May 6, 2016 at 9:00 AM


Visibility: 10 mi

Pressure: 30.07 "Hg (27.36 "Hg at 790m altitude)

Humidity: 19%

Dew Point: 14 °F

Location of TaiyuanLocation

Historic Weather in Taiyuan — Graph

°F

Taiyuan Temperature Yesterday

Maximum temperature yesterday: 79 °F (at 4:30 PM)
Minimum temperature yesterday: 55 °F (at 6:00 AM)
Average temperature yesterday: 70 °F

High & Low Weather Summary for the Past Weeks

 TemperatureHumidityPressure
High88 °F (May 1, 2:00 PM)94% (Apr 27, 5:30 AM)30.09 "Hg (Apr 27, 5:30 AM)
Low39 °F (May 3, 6:00 AM)10% (Apr 21, 2:30 PM)29.50 "Hg (May 1, 4:30 PM)
Average64 °F43%29.84 "Hg
* Reported Apr 21 8:00 AM — May 6 8:30 AM, Taiyuan, Weather by CustomWeather, © 2016

Note: Actual official high and low records may vary slightly from our data, if they occured in-between our weather recording intervals... More about our weather records

Advertising

Taiyuan Weather History for the Previous 24 Hours

Scroll right to see more
 ConditionsComfort  
Time TempWeatherWind HumidityBarometerVisibility
8:30 AM
Fri, May 6
55 °FSunny.13 mph19%30.07 "Hg10 mi
8:00 AM55 °FSunny.10 mph19%30.07 "Hg10 mi
7:30 AM54 °FPassing clouds.8 mph19%30.04 "HgN/A
7:00 AM54 °FPassing clouds.8 mph18%30.04 "HgN/A
6:30 AM52 °FPassing clouds.10 mph19%30.04 "HgN/A
6:00 AM54 °FPassing clouds.13 mph16%30.01 "HgN/A
5:30 AM54 °FSunny.13 mph16%30.01 "Hg10 mi
5:00 AM54 °FClear.8 mph16%30.01 "Hg10 mi
4:30 AM54 °FClear.8 mph15%30.01 "Hg10 mi
4:00 AM54 °FPassing clouds.6 mph18%29.98 "HgN/A
3:30 AM55 °FClear.10 mph15%29.98 "Hg10 mi
3:00 AM55 °FPassing clouds.6 mph15%29.98 "HgN/A
2:30 AM55 °FPassing clouds.6 mph15%29.98 "HgN/A
2:00 AM55 °FClear.1 mph15%29.98 "Hg10 mi
1:30 AM59 °FClear.1 mph13%29.95 "Hg10 mi
1:00 AM61 °FClear.17 mph11%29.95 "Hg10 mi
12:30 AM63 °FClear.20 mph11%29.95 "Hg10 mi
12:00 AM63 °FClear.20 mph12%29.92 "Hg10 mi
11:30 PM
Thu, May 5
64 °FPassing clouds.8 mph11%29.92 "HgN/A
11:00 PM66 °FClear.15 mph12%29.89 "Hg10 mi
10:00 PM68 °FPassing clouds.10 mph14%29.86 "HgN/A
9:30 PM68 °FClear.15 mph18%29.83 "Hg10 mi
9:00 PM72 °FClear.15 mph15%29.83 "Hg10 mi
8:30 PM72 °FClear.13 mph19%29.83 "Hg10 mi
8:00 PM72 °FClear.15 mph19%29.80 "Hg10 mi
7:30 PM72 °FClear.13 mph20%29.77 "Hg10 mi
7:00 PM77 °FSunny.17 mph15%29.77 "Hg10 mi
6:30 PM77 °FSunny.20 mph15%29.74 "Hg10 mi
6:00 PM79 °FSunny.6 mph17%29.74 "Hg10 mi
5:30 PM79 °FPassing clouds.8 mph17%29.74 "HgN/A
5:00 PM79 °FSunny.10 mph16%29.74 "Hg10 mi
4:30 PM79 °FScattered clouds.3 mph20%29.74 "HgN/A
4:00 PM77 °FScattered clouds.8 mph19%29.74 "HgN/A
3:30 PM77 °FScattered clouds.6 mph22%29.74 "HgN/A
3:00 PM77 °FScattered clouds.1 mph21%29.74 "HgN/A
2:30 PM77 °FPassing clouds.3 mph19%29.74 "HgN/A
2:00 PM75 °FSprinkles. Scattered clouds.8 mph19%29.77 "HgN/A
1:30 PM77 °FScattered clouds.10 mph17%29.77 "HgN/A
1:00 PM77 °FScattered clouds.13 mph19%29.74 "HgN/A
12:30 PM77 °FSunny.3 mph28%29.77 "Hg10 mi
12:00 PM77 °FPassing clouds.6 mph28%29.77 "HgN/A
11:30 AM75 °FPassing clouds.6 mph31%29.77 "HgN/A
11:00 AM75 °FClear.6 mph34%29.80 "Hg5 mi
10:30 AM73 °FClear.1 mph36%29.77 "Hg5 mi
10:00 AM73 °FClear.1 mph38%29.77 "Hg5 mi
9:30 AM72 °FClear.3 mph41%29.77 "Hg5 mi
9:00 AM70 °FClear.3 mph43%29.77 "Hg5 mi
Weather by CustomWeather, © 2016

See weather overviewHow to use our weather pages